User: anonymous   Login
Location: Unspecified
(0.0000°N, 0.0000°E)
Time: 11:35:13
(UTC+00:00)
Language:

Polar BEAR P87-1 - Orbit

View from above orbital plane
View from above orbital plane
View from above satellite
View from above satellite

Ground track
Ground track

The orbit data is extracted from the following two-line orbital elements,

1 17070U 86088A   17328.59638050 +.00000049 +00000-0 +39927-4 0  9999
2 17070 089.5299 319.1966 0038276 346.7060 150.6687 13.74743169555795
Epoch (UTC): 24 November 2017 14:18:47
Eccentricity: 0.0038276
inclination: 89.5299°
perigee height: 954 km
apogee height: 1011 km
right ascension of ascending node: 319.1966°
argument of perigee: 346.7060°
revolutions per day: 13.74743169
mean anomaly at epoch: 150.6687°
orbit number at epoch: 55579

The dashed part of the orbit path shows where the satellite is in the earth's shadow,  

DLR